Погода в Шымкенте

Погода в Шымкенте : погода сейчас, прогноз погоды и архив. Всё, что Вы хотите узнать о погоде в Шымкенте!

Поиск расширенной информации на нашем сайте:

Другие новости

Новости СМИ2

Главная страница сайта

Новости сайта

03.07.2017

Напоминаем, что на нашем специализированном сайте Метеоцентр.Азия вы можете получить высокодетализированные автоматические прогнозы погоды по пунктам России, СНГ и мира в авиационном формате (включающие направление и скорость ветра, видимость, явления погоды, количество и форму облачности, нижнюю и верхнюю границу облачности).


Погода в Шымкенте - сегодня

Время (UTC), дата Ветер
(°,м/с) 
Видим.   Явления Облачность Т
(°С)
Тd
(°С)
f(%) Тe
(°С)
Pmin
(гПа)
dP
(гПа)
Po
(мм)
O2
(г/м3)
Тmin Tmax R s Состояние
почвы
03 16.10.18 210 (ЮЗ) 4000 м  дымка  10/10 600 м кучево-дожд. 
[Cb cap]
+1.9 -0.2 86 +1  1022.9  0.3  712  285         
09 16.10.18 260 (З) 20000 м    10/10 600 м кучево-дожд. 
[Cb cap]
+4.6 -3.2 57 +3  1023.6  0.2  713  283           
12 16.10.18 260 (З) 20000 м    10/10 600 м кучево-дожд. 
[Cb cap]
+3.4 -2.8 64 +2  1026.2  2.1  715  285           
21 16.10.18 тихо ()   н/о  дымка  3/0 средняя 
[Ac trans]
-4.2 -4.1 100 -4  1034.2  1.1  719  295           
00 17.10.18 тихо ()   н/о  дымка  ясно 
-5.6 -5.6 100 -6  1036.5  1.8  720  297           
03 17.10.18 тихо ()   2000 м  дымка  ясно 
-4.7 -4.7 100 -5  1037.5  1.1  721  296      равномерный
сухой снег
100% 
09 17.10.18 140 (ЮВ) 20000 м    1/0 средняя 
[Ac trans]
+4.8 -4.1 52 +6  1034.4  -1  721  286           
12 17.10.18 тихо ()   20000 м    ясно 
+4 -3.7 57 +4  1033.5  -1.1  720  286           
15 17.10.18 260 (З) н/о    ясно 
-0.3 -3.3 80 1034  -0.6  720  291    +5.4       
18 17.10.18 280 (З) н/о    ясно 
-1.5 -3.8 84 -1  1033.7  -0.6  719  292    +5.4       
21 17.10.18 240 (ЮЗ) н/о    ясно 
-1.9 -4 86 -1  1031.6  -2.1  718  292           
00 18.10.18 290 (З) н/о    ясно 
-2 -4.7 82 -1  1030.9  -0.7  717  292           
06 18.10.18 140 (ЮВ) 20000 м    8/6 600 м кучево-дожд., средняя, верхняя 
[Cb cap|Ac trans|Ci fib]
+7.1 -1.8 53 +8  1026.4  -0.9  716  281  -2.8         
09 18.10.18 220 (ЮЗ) 20000 м    9/6 600 м средняя, верхняя 
[Sc|Ac trans|Ci fib]
+9.2 -2.8 43 +9  1024.1  -1.6  715  279           
12 18.10.18 230 (ЮЗ) 20000 м    9/8 600 м кучево-дожд., средняя, верхняя 
[Cb cap|Ac trans|Ci fib]
+9.9 -3.9 38 +9  1022.7  -1.2  714  278           
15 18.10.18 230 (ЮЗ) н/о    9/8 600 м средняя 
[Sc|Ac trans]
+6.5 -1 59 +6  1023.5  714  281    +10.6       
18 18.10.18 050 (СВ) н/о    9/6 600 м средняя 
[Sc|Ac trans]
+7.5 -2.2 50 +7  1023.2  -0.1  714  280    +10.6       
21 18.10.18 070 (В) н/о    10/4 600 м средняя 
[Sc|Ac trans]
+6.5 -1.9 55 +6  1023.4  714  281           
00 19.10.18 280 (З) н/о    8/4 600 м средняя 
[Sc|Ac trans]
+6.1 -2.2 55 +5  1024  0.5  714  282           
06 19.10.18 230 (ЮЗ) 20000 м    10/10 600 м кучево-дожд. 
[Cb cap]
+9.4 -2.2 44 +9  1025.8  716  279  +5.2         
09 19.10.18 230 (ЮЗ) 20000 м    10/8 600 м средняя, верхняя 
[Sc|Ac trans|Ci fib]
+12.9 -5 28 +12  1024.4  -0.5  715  276           
12 19.10.18 230 (ЮЗ) 20000 м    8/4 600 м средняя, верхняя 
[Sc|Ac trans|Ci fib]
+11.6 -3.7 34 +11  1025.6  0.8  716  277           
15 19.10.18 270 (З) н/о    6/0 верхняя 
[Ci fib]
+6.9 -2.1 53 +8  1027.7  0.9  717  282    +13.1       
18 19.10.18 030 (СВ) н/о    8/0 верхняя 
[Ci fib]
+3.9 -1.8 66 +5  1028.8  0.3  717  285    +13.1       
21 19.10.18 330 (СЗ) н/о    8/0 средняя, верхняя 
[Ac trans|Ci ing]
+4.2 -2.1 64 +4  1028.7  717  285           
Время (UTC), дата Ветер
(°,м/с) 
Видим.   Явления Облачность Т
(°С)
Тd
(°С)
f(%) Тe
(°С)
Pmin
(гПа)
dP
(гПа)
Po
(мм)
O2
(г/м3)
Тmin Tmax R s Состояние
почвы

Для получения пояснительной информации подведите курсор к названию столбца.

ПОГОДА в Шымкенте - архив

Всё, что Вы хотите узнать о погоде в Шымкенте - удобно и подробно!

Выберите нужную дату (начиная с 1 января 2015* года) и нажмите кнопку "Найти".
Будут отображены архивные сводки погоды по пункту Шымкент, начиная с указанной даты.


Отображать данные в формате CSV (для использования в таблицах Excel)


Внимание! Наш архив погоды предназначен исключительно для личного некоммерческого использования в познавательных целях. Если Вам необходимы официальные справки о состоянии погоды (для производственных, юридических, коммерческих и т.п. целей), обращайтесь в органы Росгидромета.

*Примечание: данная дата относится к архиву по метеостанциям СССР (Россия, СНГ, Балтия).
Архив по метеостанциям Зарубежной Европы и Азии (кроме Китая) хранится 10 дней, по другим регионам земного шара (Китай, Африка, Америка, Австралия, Океания) - 1 день.

Шымкент - район местоположения метеостанции


Название, широта, долгота, высота метеостанции:
Шымкент (город) 42.3°ш. 69.7°д. 604 м над ур. моря [Казахстан]

Дополнительная информация

В oтличие oт бoльшинства пoгoдных сайтoв мы публикуем пoдрoбную метеoинфoрмацию в детальнoм прoфессиoнальнoм фoрмате.

Характеристики температуры и влажнoсти вoздуха измеряются на высoте 2 м в тени вдали oт зданий и деревьев.
Скoрoсть ветра измеряется на высoте 10 м (на урoвне рoста челoвека скoрoсть ветра ниже в 1.5-2 раза). Если метеoстанция нахoдится в гoрoде или в лесу, тo скoрoсть ветра занижена на 2-4 м/с пo сравнению с oткрытым местoм. Скoрoсть ветра над акватoриями крупных рек и oзёр, а также на вершинах хoлмoв на 2-5 м/с выше, чем в oбычных услoвиях.
Атмoсфернoе давление в разных тoчках местнoсти мoжет значительнo oтличаться oт давления на метеoстанции, в зависимoсти oт услoвий рельефа (при пoдъёме на 10 м давление пoнижается примернo на 1 мм рт.ст.).